Tracking 30744 objects as of 24-Jun-2025
HD Live streaming from Space Station
objects crossing your sky now

ONEWEB-0044

Track ONEWEB-0044 now!
10-day predictions
ONEWEB-0044 is classified as:


NORAD ID: 45150
Int'l Code: 2020-008V
Perigee: 1,227.5 km
Apogee: 1,230.2 km
Inclination: 87.9 °
Period: 109.9 minutes
Semi major axis: 7599 km
RCS: Unknown
Launch date: February 6, 2020
Source: United Kingdom (UK)
Launch site: TYURATAM MISSILE AND SPACE COMPLEX (TTMTR)
Your satellite tracking list
Your tracking list is empty




NASA's NSSDC Master Catalog

Two Line Element Set (TLE):
1 45150U 20008V   25173.51194039  .00000346  00000-0  95450-3 0  9994
2 45150  87.8822 107.9864 0001748  78.3140 281.8183 13.10369632262140
Source of the keplerian elements: AFSPC